Other Surface Observations
Issued by NWS Charleston, SC

Current Version | Previous Version | Text Only | Print | Product List | Glossary Off
Versions: 1 2 3 4 5 6 7 8 9 10 11 12 13 14 15 16 17 18 19 20 21 22 23 24 25 26 27 28 29 30 31 32 33 34 35 36 37 38 39 40 41 42 43 44 45 46 47 48 49 50

000
SXUS52 KCHS 150226
OSOCHS

Marine Observations
National Weather Service Charleston SC
1000 PM EDT FRI MAY 14 2021

...Downtown Charleston and Harbor...

CITY           SKY/WX    TMP DP  RH WIND       PRES   REMARKS
Waterfront Prk   N/A     68  52  56 NE5       30.07S

...Lake Moultrie...

CITY           SKY/WX    TMP DP  RH WIND       PRES   REMARKS
Pinopolis        N/A     64  48  55 CALM      30.13R

...Lake and Supplemental Coastal Observations...

STATION/POSITION TIME  TEMP    WIND        PRES    WAVE   SWELL
                       AIR SEA DIR/SP/G            HT/PER HT/PER/DIR
                 (UTC) (F)     (DEG/KT/KT) (MB)    (FT/S) (FT/S/D)
Chrlstn Harbor   0142           40/  5/  6 1023.5R
Fort Pulaski     0142                      1023.8R
Sapelo Island    0200   64      70/  6     1023.0
Winyah Bay       0145   61     340/  2     1023.0S
Lake Murray      0220   61        CALM       N/A
ACE Basin NERRS  0145   58        CALM     1024.0R


...C-MAN and Buoy Observations...

STATION/POSITION TIME  TEMP    WIND        PRES    WAVE   SWELL
                       AIR SEA DIR/SP/G            HT/PER HT/PER/DIR
                 (UTC) (F)     (DEG/KT/KT) (MB)    (FT/S) (FT/S/D)
Buoy 41004       NOT AVBL
Buoy 41008       0150   69 72   50/ 14/ 17 1022.5R   5/ 6   3/ 60/11
Folly Beach CMAN 0200   68      60/ 11/ 12 1023.9R
Pritchards Islan NOT AVBL
Capers NS Buoy   0208   69 71   70/ 12/ 16 1022.8
Fripp NS Buoy    0208   69 71   70/ 10/ 16 1022.5R
5E St. Marys GA  0200   70 72                N/A     5/ 6   2/ 70/10


STATION/POSITION TIME  TEMP    WIND        PRES    WAVE   SWELL
                       AIR SEA DIR/SP/G            HT/PER HT/PER/DIR
                 (UTC) (F)     (DEG/KT/KT) (MB)    (FT/S) (FT/S/D)
Frying Pan Buoy  0210      71   60/ 16/ 19 1021.6
Buoy 41025       NOT AVBL
Cape Lookout NC  0200   64      40/ 15/ 16 1023.8R
Buoy 41002       NOT AVBL
Buoy 41010       0210   75      50/ 14/ 17 1019.3
St Augustine FL  0200   70 72   20/ 20/ 22 1022.4R

$$



USA.gov is the U.S. government's official web portal to all federal, state and local government web resources and services.